Location: General Nathan Twining Observatory
(34.5931°N, 106.8201°W)
Time: 02:02:02
(UTC-06:00)

Daily predictions for brighter satellites

Satellite Brightness Start Highest point End
(mag) Time Altitude Azimuth Time Altitude Azimuth Time Altitude Azimuth
Cosmos 2219 Rocket 4.3 00:28:55 22° N 00:28:55 22° N 00:31:06 10° N
Cosmos 2333 Rocket 4.4 00:39:35 21° N 00:39:35 21° N 00:41:35 10° N
CENTAUR R/B 4.1 00:32:21 10° NNW 00:39:08 37° NE 00:39:08 37° NE
CENTAUR R/B 4.4 02:22:48 10° NW 02:26:16 28° NW 02:26:16 28° NW
Cosmos 1943 Rocket 3.7 02:48:31 10° N 02:52:00 33° NNE 02:52:00 33° NNE
SL-16 R/B 3.3 02:57:55 47° ENE 02:57:55 47° ENE 03:03:42 10° N
Cosmos 2369 Rocket 4.0 02:52:33 10° NNW 02:54:47 25° NNW 02:54:47 25° NNW
ADEOS Rocket 4.0 02:58:07 10° N 03:01:13 35° N 03:01:13 35° N
Resurs 1-4 Rocket 3.3 03:05:55 10° NNE 03:09:21 39° NE 03:09:21 39° NE
Cosmos 1821 Rocket 4.4 03:14:00 61° NNE 03:14:00 61° NNE 03:19:07 10° N
CZ-2D R/B 3.1 03:09:31 10° NNE 03:13:14 43° NE 03:13:14 43° NE
CZ-3A R/B 3.8 03:06:49 10° NW 03:15:00 56° NE 03:20:19 10° ESE
Cosmos 1934 Rocket 4.0 03:32:05 71° NNE 03:32:05 71° NNE 03:37:27 10° N
Cosmos 1605 Rocket 4.2 03:40:54 63° SE 03:41:36 68° E 03:47:57 10° NNE
Cosmos 1726 4.5 03:45:05 22° ENE 03:45:05 22° ENE 03:47:09 10° NE
Kakehashi 4.3 03:47:15 40° SE 03:47:15 40° SE 03:52:26 10° E
MOS 1 Rocket 4.5 03:44:10 10° N 03:46:40 34° N 03:46:40 34° N
COSMOS 2406 3.3 03:50:49 67° ESE 03:50:53 67° ESE 03:56:31 10° NNE
ARIANE 5 R/B 3.1 03:58:55 10° N 04:03:07 45° NW 04:03:07 45° NW
ADEOS II 3.6 04:00:49 10° NE 04:05:25 31° E 04:08:28 18° SSE
Cosmos 1315 Rocket 4.2 04:09:26 10° N 04:13:12 37° ENE 04:14:44 26° ESE
Cosmos 1300 3.5 04:16:33 48° E 04:16:33 48° E 04:20:13 10° NNE
SL-27 R/B 3.8 04:17:23 37° ENE 04:17:23 37° ENE 04:19:48 10° NNE
Cosmos 2285 Rocket 3.9 04:19:51 53° SW 04:21:27 78° WNW 04:27:51 10° NNE
Cosmos 1666 Rocket 4.0 04:17:40 10° N 04:22:04 61° E 04:23:45 35° SSE
ADEOS 4.3 04:19:20 10° N 04:23:50 37° WNW 04:23:50 37° WNW
Cosmos 1805 Rocket 3.5 04:19:56 10° N 04:24:05 73° NW 04:24:05 73° NW
Cosmos 1447 Rocket 4.4 04:18:53 10° N 04:25:06 84° E 04:29:48 18° S
Cosmos 2221 4.0 04:28:11 26° NW 04:28:11 26° NW 04:30:41 10° NNW
CZ-4B R/B 4.5 04:25:36 10° NNE 04:29:44 36° E 04:32:46 17° SSE
Okean O Rocket 3.3 04:27:38 10° NE 04:31:34 30° E 04:35:04 12° SSE
Meteor 2-10 4.5 04:28:39 25° S 04:31:59 68° E 04:37:39 10° NNE
Tiangong 2 3.6 04:35:14 15° SE 04:35:14 15° SE 04:36:49 10° ESE
Cosmos 1943 Rocket 4.3 04:33:01 10° NW 04:33:27 12° NW 04:33:27 12° NW
OAO 1 4.4 04:39:09 46° WSW 04:40:52 84° S 04:46:25 10° E
SL-16 R/B 3.8 04:43:01 21° WNW 04:43:01 21° WNW 04:46:24 10° NW
USA 234 4.0 04:36:18 10° NE 04:42:32 45° SE 04:46:54 19° SSW
Cosmos 773 Rocket 4.3 04:41:51 24° S 04:44:57 65° ESE 04:50:11 10° NNE
Cosmos 2173 Rocket 4.0 04:41:21 18° S 04:46:08 85° E 04:52:31 10° N
MOS 1-B 4.3 04:41:35 10° NNE 04:47:26 84° WNW 04:51:00 25° SSW
Cosmos 292 Rocket 4.0 04:47:23 43° WSW 04:48:16 49° WNW 04:52:55 10° N
Cosmos 1400 Rocket 4.3 04:45:04 10° NNW 04:46:58 23° NW 04:46:58 23° NW
Cosmos 2082 Rocket 3.8 04:44:21 10° SSE 04:49:10 31° ESE 04:54:01 10° NE
Cosmos 1656 Rocket 4.0 04:43:54 10° NW 04:49:15 44° WSW 04:51:42 28° SSW
Resurs 1-4 Rocket 3.9 04:47:31 10° NNW 04:50:24 15° WNW 04:50:25 15° WNW
ASTRO E2 3.9 04:52:30 26° S 04:52:30 26° S 04:55:08 10° SE
Cosmos 1151 Rocket 3.7 04:48:22 14° SSE 04:51:56 53° E 04:56:07 10° NNE
UNKNOWN OBJECT B 4.5 04:49:01 10° NNW 04:51:33 21° WNW 04:51:33 21° WNW
CZ-2D R/B 4.0 04:51:32 10° NNW 04:54:18 14° WNW 04:54:33 14° WNW
Cosmos 372 Rocket 4.5 04:49:57 10° NW 04:54:40 37° W 04:55:27 35° WSW
Meteor 2-2 Rocket 4.3 04:57:37 21° SSW 05:01:39 69° W 05:07:39 10° N
Cosmos 2228 Rocket 3.0 05:00:19 26° SSW 05:02:46 70° W 05:07:14 10° N
Sich 1 3.4 04:58:53 10° NNW 05:02:59 40° W 05:04:12 33° SW
Meteor 1-27 4.5 05:01:11 10° S 05:06:51 72° E 05:12:28 10° NNE
PAYLOAD B 4.4 05:01:38 10° NNE 05:07:15 77° ESE 05:12:50 10° S
CZ-4B R/B 3.5 05:02:52 10° NNE 05:08:20 68° ESE 05:13:39 10° S
Hubble Space Telescope 2.2 05:07:24 22° SSW 05:08:34 25° SSE 05:11:58 10° ESE
Cosmos 1459 Rocket 4.0 05:06:48 17° SSW 05:11:30 57° W 05:17:29 10° N
Cosmos 1470 Rocket 3.4 05:09:58 10° N 05:14:17 83° W 05:18:36 10° S
Cosmos 1892 3.4 05:12:16 10° N 05:16:02 55° E 05:19:48 10° SSE
IRS-1C Rocket 4.2 05:12:39 10° NNE 05:17:55 78° ESE 05:23:11 10° S
Shenzhou-11 Module 2.2 05:17:42 32° SW 05:18:54 62° SSE 05:21:58 10° ENE
Cosmos 2061 Rocket 4.2 05:13:31 12° SSW 05:19:23 57° W 05:25:42 10° N
Cosmos 1726 4.0 05:19:43 14° WNW 05:19:43 14° WNW 05:21:31 10° NW
Cosmos 1515 Rocket 3.7 05:16:48 19° SSW 05:19:47 52° W 05:24:05 10° N
BREEZE M DEB (TANK) 3.3 05:18:16 10° NW 05:20:18 40° NE 05:23:30 10° ESE
Cosmos 1633 Rocket 4.1 05:24:50 10° NW 05:28:25 25° W 05:30:41 17° SW
ERBS 2.3 05:26:34 10° NW 05:29:56 57° SW 05:33:17 10° SSE
In-Cosmos 22 Rocket 4.3 05:26:04 10° NNW 05:31:13 48° W 05:36:18 10° SSW
Cosmos 923 Rocket 3.9 05:26:59 10° SSW 05:32:10 78° WNW 05:37:25 10° NNE
Cosmos 2233 Rocket 4.2 05:38:14 10° S 05:44:21 75° E 05:50:28 10° N
ADEOS II 3.1 05:40:37 10° NNW 05:45:00 27° WNW 05:49:21 10° SW
Cosmos 1656 4.4 05:40:11 10° NNW 05:45:51 62° ENE 05:51:27 10° SSE
Cosmos 2016 Rocket 4.4 05:42:30 10° SSW 05:48:13 40° W 05:53:57 10° N
Cosmos 1680 Rocket 3.6 05:46:51 10° SSW 05:52:06 67° WNW 05:57:23 10° NNE
Cosmos 1833 Rocket 2.7 05:46:42 10° SSW 05:52:19 73° WNW 05:57:58 10° NNE
EO 1 Del DPAF 3.4 05:52:39 10° SSE 05:56:29 80° ENE 06:00:20 10° N
Cosmos 2112 Rocket 4.1 05:52:42 10° SSW 05:57:57 69° WNW 06:03:17 10° NNE
Cosmos 1725 Rocket 4.3 05:53:27 10° SSW 05:59:23 48° W 06:05:20 10° N
CZ-4B R/B 3.8 05:55:47 10° N 05:59:33 56° WNW 06:03:09 10° SSW
Okean-O 2.8 05:56:20 10° NNE 06:00:47 77° ESE 06:05:12 10° S
NOSS 3-1 (A) 4.2 05:53:08 10° NNW 06:01:00 80° WSW 06:09:33 10° SSE
MTI 3.7 06:01:15 10° S 06:04:26 64° WSW 06:07:38 10° NNW
Cosmos 1408 3.3 06:02:01 10° N 06:05:36 59° E 06:09:08 10° SSE
Cosmos 2278 3.7 06:02:14 10° NNW 06:07:49 65° WSW 06:13:23 10° S
